Time,TemperatureF,DewpointF,PressureIn,WindDirection,WindDirectionDegrees,WindSpeedMPH,WindSpeedGustMPH,Humidity,HourlyPrecipIn,Conditions,Clouds,dailyrainin,SoftwareType,DateUTC
2013-03-31 00:01:00,51.2,50.0,30.04,North,351,0.0,0.0,94,0.02,,,0.00,weatherlink.com 1.10,2013-03-31 07:01:00,
2013-03-31 00:16:00,51.1,50.0,30.05,North,351,0.0,0.0,94,0.01,,,0.00,weatherlink.com 1.10,2013-03-31 07:16:00,
2013-03-31 00:31:00,51.2,50.0,30.05,North,351,0.0,0.0,95,0.01,,,0.00,weatherlink.com 1.10,2013-03-31 07:31:00,
2013-03-31 00:46:00,51.3,50.0,30.05,North,351,0.0,0.0,95,0.00,,,0.00,weatherlink.com 1.10,2013-03-31 07:46:00,
2013-03-31 01:01:00,51.3,50.0,30.04,North,351,0.0,0.0,95,0.01,,,0.01,weatherlink.com 1.10,2013-03-31 08:01:00,
2013-03-31 01:16:00,51.5,50.0,30.04,North,351,0.0,0.0,95,0.01,,,0.01,weatherlink.com 1.10,2013-03-31 08:16:00,
2013-03-31 01:31:00,51.5,50.0,30.04,North,351,0.0,0.0,95,0.01,,,0.01,weatherlink.com 1.10,2013-03-31 08:31:00,
2013-03-31 01:46:00,51.5,50.0,30.03,North,351,0.0,0.0,95,0.01,,,0.01,weatherlink.com 1.10,2013-03-31 08:46:00,
2013-03-31 02:01:00,51.6,50.0,30.02,North,351,0.0,0.0,95,0.00,,,0.01,weatherlink.com 1.10,2013-03-31 09:01:00,
2013-03-31 02:16:00,51.7,50.0,30.03,North,351,0.0,0.0,95,0.00,,,0.01,weatherlink.com 1.10,2013-03-31 09:16:00,
2013-03-31 02:31:00,51.7,50.0,30.02,North,351,0.0,0.0,95,0.00,,,0.01,weatherlink.com 1.10,2013-03-31 09:31:00,
2013-03-31 02:46:00,51.7,50.0,30.02,North,351,0.0,0.0,95,0.00,,,0.01,weatherlink.com 1.10,2013-03-31 09:46:00,
2013-03-31 03:01:00,51.7,50.0,30.02,North,351,0.0,0.0,95,0.00,,,0.01,weatherlink.com 1.10,2013-03-31 10:01:00,
2013-03-31 03:16:00,51.8,51.0,30.03,West,263,2.0,3.0,95,0.03,,,0.04,weatherlink.com 1.10,2013-03-31 10:16:00,
2013-03-31 03:31:00,52.0,51.0,30.04,ESE,114,3.0,5.0,95,0.05,,,0.06,weatherlink.com 1.10,2013-03-31 10:31:00,
2013-03-31 03:46:00,51.9,51.0,30.04,ENE,66,0.0,6.0,95,0.08,,,0.09,weatherlink.com 1.10,2013-03-31 10:46:00,
2013-03-31 04:02:00,51.9,51.0,30.04,NNW,327,1.0,5.0,95,0.09,,,0.11,weatherlink.com 1.10,2013-03-31 11:02:00,
2013-03-31 04:17:00,51.7,50.0,30.04,ENE,60,1.0,6.0,95,0.07,,,0.11,weatherlink.com 1.10,2013-03-31 11:17:00,
2013-03-31 04:32:00,51.5,50.0,30.03,ENE,59,1.0,5.0,95,0.05,,,0.11,weatherlink.com 1.10,2013-03-31 11:32:00,
2013-03-31 04:47:00,51.5,50.0,30.04,NE,38,0.0,6.0,95,0.02,,,0.11,weatherlink.com 1.10,2013-03-31 11:47:00,
2013-03-31 05:02:00,51.5,50.0,30.04,ENE,63,0.0,2.0,95,0.00,,,0.11,weatherlink.com 1.10,2013-03-31 12:02:00,
2013-03-31 05:17:00,51.5,50.0,30.04,ENE,61,0.0,5.0,95,0.00,,,0.11,weatherlink.com 1.10,2013-03-31 12:17:00,
2013-03-31 05:32:00,51.4,50.0,30.04,ENE,58,0.0,3.0,95,0.00,,,0.11,weatherlink.com 1.10,2013-03-31 12:32:00,
2013-03-31 05:47:00,51.4,50.0,30.04,ENE,58,0.0,1.0,95,0.00,,,0.11,weatherlink.com 1.10,2013-03-31 12:47:00,
2013-03-31 06:02:00,51.2,50.0,30.04,ENE,58,0.0,1.0,95,0.00,,,0.11,weatherlink.com 1.10,2013-03-31 13:02:00,
2013-03-31 06:17:00,51.1,50.0,30.05,ENE,58,0.0,0.0,95,0.00,,,0.11,weatherlink.com 1.10,2013-03-31 13:17:00,
2013-03-31 06:32:00,51.1,50.0,30.05,ENE,58,0.0,0.0,95,0.00,,,0.11,weatherlink.com 1.10,2013-03-31 13:32:00,
2013-03-31 06:47:00,51.1,50.0,30.06,ENE,58,0.0,1.0,95,0.00,,,0.11,weatherlink.com 1.10,2013-03-31 13:47:00,
2013-03-31 07:02:00,51.1,50.0,30.07,ENE,58,0.0,0.0,95,0.00,,,0.11,weatherlink.com 1.10,2013-03-31 14:02:00,
2013-03-31 07:17:00,51.1,50.0,30.06,ENE,58,0.0,0.0,95,0.00,,,0.11,weatherlink.com 1.10,2013-03-31 14:17:00,
2013-03-31 07:32:00,51.0,50.0,30.06,ENE,58,0.0,0.0,95,0.00,,,0.11,weatherlink.com 1.10,2013-03-31 14:32:00,
2013-03-31 07:47:00,51.2,50.0,30.07,ENE,58,0.0,0.0,95,0.00,,,0.11,weatherlink.com 1.10,2013-03-31 14:47:00,
2013-03-31 08:02:00,51.3,50.0,30.07,ENE,58,0.0,0.0,95,0.00,,,0.11,weatherlink.com 1.10,2013-03-31 15:02:00,
2013-03-31 08:17:00,52.3,51.0,30.07,ENE,58,0.0,1.0,96,0.00,,,0.11,weatherlink.com 1.10,2013-03-31 15:17:00,
2013-03-31 08:43:00,52.6,51.0,30.07,ENE,58,0.0,0.0,95,0.00,,,0.11,weatherlink.com 1.10,2013-03-31 15:43:00,
2013-03-31 09:02:00,52.5,51.0,30.07,ENE,58,0.0,1.0,95,0.00,,,0.11,weatherlink.com 1.10,2013-03-31 16:02:00,
2013-03-31 09:17:00,52.4,51.0,30.08,ENE,58,0.0,1.0,95,0.01,,,0.12,weatherlink.com 1.10,2013-03-31 16:17:00,
2013-03-31 09:32:00,52.3,51.0,30.08,ENE,58,0.0,1.0,95,0.01,,,0.12,weatherlink.com 1.10,2013-03-31 16:32:00,
2013-03-31 09:47:00,52.7,51.0,30.07,ENE,58,0.0,1.0,95,0.01,,,0.12,weatherlink.com 1.10,2013-03-31 16:47:00,
2013-03-31 10:02:00,53.9,53.0,30.08,ENE,64,0.0,4.0,95,0.01,,,0.12,weatherlink.com 1.10,2013-03-31 17:02:00,
2013-03-31 10:17:00,54.9,54.0,30.08,ENE,64,0.0,2.0,95,0.00,,,0.12,weatherlink.com 1.10,2013-03-31 17:17:00,
2013-03-31 10:32:00,55.8,54.0,30.08,ENE,75,0.0,3.0,95,0.00,,,0.12,weatherlink.com 1.10,2013-03-31 17:32:00,
2013-03-31 10:47:00,55.3,54.0,30.09,ENE,72,0.0,2.0,94,0.00,,,0.12,weatherlink.com 1.10,2013-03-31 17:47:00,
2013-03-31 11:02:00,55.6,54.0,30.09,NNW,336,0.0,2.0,93,0.00,,,0.12,weatherlink.com 1.10,2013-03-31 18:02:00,
2013-03-31 11:17:00,55.5,53.0,30.09,ENE,59,0.0,4.0,91,0.00,,,0.12,weatherlink.com 1.10,2013-03-31 18:17:00,
2013-03-31 11:32:00,55.4,53.0,30.09,East,79,2.0,3.0,91,0.00,,,0.12,weatherlink.com 1.10,2013-03-31 18:32:00,
2013-03-31 11:47:00,57.8,55.0,30.08,NE,53,0.0,4.0,90,0.00,,,0.12,weatherlink.com 1.10,2013-03-31 18:47:00,
2013-03-31 12:02:00,58.0,53.0,30.08,ENE,67,0.0,7.0,82,0.00,,,0.12,weatherlink.com 1.10,2013-03-31 19:02:00,
2013-03-31 12:17:00,58.7,54.0,30.08,ENE,57,3.0,5.0,83,0.00,,,0.12,weatherlink.com 1.10,2013-03-31 19:17:00,
2013-03-31 12:32:00,59.3,54.0,30.07,WNW,289,0.0,6.0,82,0.00,,,0.12,weatherlink.com 1.10,2013-03-31 19:32:00,
2013-03-31 12:47:00,60.5,54.0,30.07,ENE,63,1.0,6.0,80,0.00,,,0.12,weatherlink.com 1.10,2013-03-31 19:47:00,
2013-03-31 13:02:00,59.3,52.0,30.07,NE,53,2.0,4.0,77,0.00,,,0.12,weatherlink.com 1.10,2013-03-31 20:02:00,
2013-03-31 13:17:00,58.6,53.0,30.06,West,276,0.0,4.0,81,0.00,,,0.12,weatherlink.com 1.10,2013-03-31 20:17:00,
2013-03-31 13:34:00,57.1,54.0,30.06,North,351,0.0,1.0,88,0.05,,,0.17,weatherlink.com 1.10,2013-03-31 20:34:00,
2013-03-31 13:48:00,55.3,53.0,30.06,SSE,166,0.0,5.0,90,0.14,,,0.26,weatherlink.com 1.10,2013-03-31 20:48:00,
2013-03-31 14:03:00,53.3,51.0,30.05,WNW,289,1.0,2.0,91,0.31,,,0.43,weatherlink.com 1.10,2013-03-31 21:03:00,
2013-03-31 14:44:00,52.7,51.0,30.05,SSE,160,0.0,0.0,94,0.27,,,0.51,weatherlink.com 1.10,2013-03-31 21:44:00,
2013-03-31 15:03:00,53.1,52.0,30.05,SE,140,0.0,2.0,94,0.08,,,0.52,weatherlink.com 1.10,2013-03-31 22:03:00,
2013-03-31 15:18:00,53.2,52.0,30.05,East,100,0.0,2.0,94,0.06,,,0.52,weatherlink.com 1.10,2013-03-31 22:18:00,
2013-03-31 15:33:00,53.1,52.0,30.06,ENE,78,0.0,2.0,95,0.04,,,0.55,weatherlink.com 1.10,2013-03-31 22:33:00,
2013-03-31 15:48:00,52.8,51.0,30.05,ESE,108,1.0,2.0,94,0.07,,,0.58,weatherlink.com 1.10,2013-03-31 22:48:00,
2013-03-31 16:03:00,53.1,52.0,30.05,ENE,59,2.0,2.0,95,0.06,,,0.58,weatherlink.com 1.10,2013-03-31 23:03:00,
2013-03-31 16:18:00,53.2,52.0,30.04,ENE,62,0.0,2.0,95,0.06,,,0.58,weatherlink.com 1.10,2013-03-31 23:18:00,
2013-03-31 16:33:00,53.6,52.0,30.04,ENE,62,0.0,0.0,95,0.03,,,0.59,weatherlink.com 1.10,2013-03-31 23:33:00,
2013-03-31 16:48:00,53.3,52.0,30.04,ESE,119,0.0,2.0,95,0.01,,,0.59,weatherlink.com 1.10,2013-03-31 23:48:00,
2013-03-31 17:03:00,52.4,51.0,30.04,East,93,1.0,2.0,95,0.12,,,0.70,weatherlink.com 1.10,2013-04-01 00:03:00,
2013-03-31 17:18:00,52.2,51.0,30.04,East,93,0.0,1.0,95,0.19,,,0.77,weatherlink.com 1.10,2013-04-01 00:18:00,
2013-03-31 17:33:00,52.4,51.0,30.04,NNE,26,0.0,3.0,95,0.18,,,0.77,weatherlink.com 1.10,2013-04-01 00:33:00,
2013-03-31 17:48:00,52.6,51.0,30.04,NNE,26,0.0,1.0,95,0.17,,,0.77,weatherlink.com 1.10,2013-04-01 00:48:00,
2013-03-31 18:03:00,52.6,51.0,30.04,NNE,26,0.0,1.0,95,0.06,,,0.77,weatherlink.com 1.10,2013-04-01 01:03:00,
2013-03-31 18:18:00,53.0,52.0,30.04,NNE,26,0.0,1.0,95,0.00,,,0.77,weatherlink.com 1.10,2013-04-01 01:18:00,
2013-03-31 18:33:00,53.1,52.0,30.04,NNE,26,1.0,1.0,95,0.00,,,0.77,weatherlink.com 1.10,2013-04-01 01:33:00,
2013-03-31 18:48:00,52.8,52.0,30.04,NNE,26,0.0,1.0,95,0.00,,,0.77,weatherlink.com 1.10,2013-04-01 01:48:00,
2013-03-31 19:03:00,53.0,52.0,30.04,NNE,26,0.0,0.0,95,0.00,,,0.77,weatherlink.com 1.10,2013-04-01 02:03:00,
2013-03-31 19:18:00,52.9,52.0,30.04,NNE,26,0.0,0.0,95,0.01,,,0.78,weatherlink.com 1.10,2013-04-01 02:18:00,
2013-03-31 19:33:00,52.7,51.0,30.05,NNE,26,0.0,1.0,95,0.01,,,0.78,weatherlink.com 1.10,2013-04-01 02:33:00,
2013-03-31 19:48:00,52.4,51.0,30.04,NNE,26,0.0,0.0,95,0.01,,,0.78,weatherlink.com 1.10,2013-04-01 02:48:00,
2013-03-31 20:03:00,52.2,51.0,30.04,NNE,26,0.0,0.0,95,0.01,,,0.78,weatherlink.com 1.10,2013-04-01 03:03:00,
2013-03-31 20:33:00,51.9,51.0,30.05,NNE,26,0.0,0.0,95,0.00,,,0.78,weatherlink.com 1.10,2013-04-01 03:33:00,
2013-03-31 20:48:00,52.0,51.0,30.05,NNE,26,0.0,0.0,95,0.04,,,0.82,weatherlink.com 1.10,2013-04-01 03:48:00,
2013-03-31 21:03:00,51.9,51.0,30.04,NNE,26,0.0,1.0,95,0.05,,,0.83,weatherlink.com 1.10,2013-04-01 04:03:00,
2013-03-31 21:18:00,51.6,50.0,30.05,NNE,26,0.0,0.0,95,0.05,,,0.83,weatherlink.com 1.10,2013-04-01 04:18:00,
2013-03-31 21:33:00,51.1,50.0,30.05,NNE,26,0.0,0.0,95,0.05,,,0.83,weatherlink.com 1.10,2013-04-01 04:33:00,
2013-03-31 21:48:00,50.7,49.0,30.05,NNE,26,0.0,0.0,95,0.01,,,0.83,weatherlink.com 1.10,2013-04-01 04:48:00,
2013-03-31 22:03:00,50.1,49.0,30.06,NNE,26,0.0,0.0,95,0.00,,,0.83,weatherlink.com 1.10,2013-04-01 05:03:00,
2013-03-31 22:18:00,50.1,49.0,30.07,NNE,26,0.0,0.0,95,0.00,,,0.83,weatherlink.com 1.10,2013-04-01 05:18:00,
2013-03-31 22:33:00,49.7,48.0,30.07,NNE,26,0.0,0.0,95,0.00,,,0.83,weatherlink.com 1.10,2013-04-01 05:33:00,
2013-03-31 22:48:00,49.5,48.0,30.07,NNE,26,0.0,0.0,95,0.00,,,0.83,weatherlink.com 1.10,2013-04-01 05:48:00,
2013-03-31 23:03:00,49.2,48.0,30.07,NNE,26,0.0,0.0,95,0.00,,,0.83,weatherlink.com 1.10,2013-04-01 06:03:00,
2013-03-31 23:18:00,48.7,47.0,30.07,NNE,26,0.0,0.0,95,0.00,,,0.83,weatherlink.com 1.10,2013-04-01 06:18:00,
2013-03-31 23:33:00,48.4,47.0,30.07,NNE,26,0.0,0.0,95,0.00,,,0.83,weatherlink.com 1.10,2013-04-01 06:33:00,
2013-03-31 23:48:00,48.2,47.0,30.07,NNE,26,0.0,0.0,95,0.00,,,0.83,weatherlink.com 1.10,2013-04-01 06:48:00,